GW7874 Weather Reports


time (UTC)temp
C
wind
direction
speed
KPH
gust
KPH
rain 1hr
cm
rain 24hr
cm
rain mn
cm
humidity
%
barometer
mb
20260906200018 39 208 3.2 6.4 0.00 0.00 0.00 30 981.7
20260906195518 37 60 1.6 3.2 0.00 0.00 0.00 33 981.7
20260906195018 37 28 3.2 8.0 0.00 0.00 0.00 32 982.1
20260906194518 37 115 4.8 6.4 0.00 0.00 0.00 32 982.1
20260906194018 38 78 3.2 4.8 0.00 0.00 0.00 31 982.1
20260906193518 39 81 8.0 9.7 0.00 0.00 0.00 29 982.1
20260906193018 40 343 9.7 9.7 0.00 0.00 0.00 28 982.1
20260906192519 40 150 4.8 6.4 0.00 0.00 0.00 29 982.4
20260906192018 40 194 4.8 9.7 0.00 0.00 0.00 28 982.4
20260906191519 39 13 3.2 6.4 0.00 0.00 0.00 30 982.4
20260906191019 40 121 8.0 12.9 0.00 0.00 0.00 28 982.4
20260906190519 39 151 12.9 12.9 0.00 0.00 0.00 30 982.4
20260906190018 39 217 4.8 14.5 0.00 0.00 0.00 29 982.4
20260906185519 40 161 8.0 12.9 0.00 0.00 0.00 29 982.7
20260906185020 40 48 8.0 8.0 0.00 0.00 0.00 29 982.7
20260906184523 39 253 6.4 8.0 0.00 0.00 0.00 32 982.7
20260906184019 38 59 6.4 9.7 0.00 0.00 0.00 32 982.7
20260906183518 38 350 9.7 14.5 0.00 0.00 0.00 34 982.7
20260906183020 37 7 6.4 8.0 0.00 0.00 0.00 36 982.7
20260906182518 37 7 4.8 6.4 0.00 0.00 0.00 35 983.1
20260906182019 38 324 4.8 11.3 0.00 0.00 0.00 33 983.1
20260906181519 37 191 6.4 11.3 0.00 0.00 0.00 34 983.1
20260906181018 38 20 3.2 6.4 0.00 0.00 0.00 33 983.1
20260906180518 39 70 1.6 4.8 0.00 0.00 0.00 33 983.4
20260906180019 38 46 3.2 3.2 0.00 0.00 0.00 33 983.4
20260906175518 39 78 4.8 11.3 0.00 0.00 0.00 32 983.4
20260906175018 38 179 4.8 6.4 0.00 0.00 0.00 35 983.7
20260906174518 37 133 3.2 3.2 0.00 0.00 0.00 34 983.7
20260906174018 38 59 3.2 9.7 0.00 0.00 0.00 34 983.7
20260906173518 38 334 1.6 6.4 0.00 0.00 0.00 35 983.7
20260906173018 37 352 3.2 6.4 0.00 0.00 0.00 34 984.1
20260906172518 37 344 6.4 8.0 0.00 0.00 0.00 35 984.1
20260906172018 37 49 6.4 6.4 0.00 0.00 0.00 35 984.1
20260906171518 38 200 4.8 11.3 0.00 0.00 0.00 34 984.4
20260906171018 38 40 8.0 8.0 0.00 0.00 0.00 35 984.4
20260906170518 38 16 4.8 9.7 0.00 0.00 0.00 35 984.4
20260906170019 38 27 4.8 4.8 0.00 0.00 0.00 34 984.4
20260906165518 38 238 4.8 6.4 0.00 0.00 0.00 33 984.4
20260906165018 37 287 1.6 1.6 0.00 0.00 0.00 35 984.4
20260906164518 37 188 9.7 9.7 0.00 0.00 0.00 35 984.8
20260906164018 37 47 8.0 9.7 0.00 0.00 0.00 36 984.8
20260906163519 37 216 4.8 9.7 0.00 0.00 0.00 36 984.8
20260906163019 37 308 0.0 4.8 0.00 0.00 0.00 36 984.8
20260906162519 37 95 3.2 8.0 0.00 0.00 0.00 37 984.8
20260906162018 37 177 4.8 8.0 0.00 0.00 0.00 36 984.8
20260906161519 36 161 3.2 8.0 0.00 0.00 0.00 37 984.8
20260906161018 36 230 3.2 4.8 0.00 0.00 0.00 37 984.8
20260906160519 36 266 4.8 4.8 0.00 0.00 0.00 37 984.8
20260906160018 36 234 1.6 4.8 0.00 0.00 0.00 38 984.8
20260906155518 36 213 3.2 3.2 0.00 0.00 0.00 39 984.8
20260906155018 36 245 4.8 9.7 0.00 0.00 0.00 39 984.8
20260906154518 36 216 4.8 4.8 0.00 0.00 0.00 39 984.8
20260906154019 35 275 0.0 6.4 0.00 0.00 0.00 40 984.8
20260906153518 35 322 3.2 4.8 0.00 0.00 0.00 41 984.8
20260906153018 35 222 4.8 4.8 0.00 0.00 0.00 42 984.8
20260906152519 35 238 3.2 4.8 0.00 0.00 0.00 41 984.8
20260906152019 34 350 3.2 9.7 0.00 0.00 0.00 44 984.4
20260906151519 34 249 6.4 9.7 0.00 0.00 0.00 42 984.4
20260906151018 33 279 8.0 9.7 0.00 0.00 0.00 43 984.4
20260906150519 33 4 3.2 9.7 0.00 0.00 0.00 43 984.4
20260906150019 33 269 9.7 9.7 0.00 0.00 0.00 43 984.4
20260906145518 33 322 1.6 1.6 0.00 0.00 0.00 44 984.8
20260906145019 33 312 6.4 9.7 0.00 0.00 0.00 46 984.8
20260906144520 33 48 0.0 0.0 0.00 0.00 0.00 46 984.8
20260906144018 32 21 0.0 0.0 0.00 0.00 0.00 50 984.8
20260906143519 32 319 1.6 4.8 0.00 0.00 0.00 50 984.8
20260906143019 31 324 0.0 3.2 0.00 0.00 0.00 51 984.4
20260906142521 31 330 0.0 1.6 0.00 0.00 0.00 52 984.4
20260906142018 31 179 0.0 4.8 0.00 0.00 0.00 53 984.4
20260906141519 30 117 0.0 3.2 0.00 0.00 0.00 55 984.4
20260906141018 30 193 4.8 4.8 0.00 0.00 0.00 56 984.4
20260906140518 29 233 3.2 4.8 0.00 0.00 0.00 57 984.4
20260906140019 29 264 1.6 3.2 0.00 0.00 0.00 57 984.4
20260906135518 28 252 3.2 3.2 0.00 0.00 0.00 59 984.1
20260906135018 28 284 1.6 1.6 0.00 0.00 0.00 59 984.1
20260906134519 28 305 1.6 3.2 0.00 0.00 0.00 60 984.1
20260906134019 28 206 3.2 4.8 0.00 0.00 0.00 60 984.1
20260906133522 28 210 4.8 4.8 0.00 0.00 0.00 60 984.1
20260906133018 27 195 3.2 4.8 0.00 0.00 0.00 61 984.1
20260906132518 27 221 1.6 4.8 0.00 0.00 0.00 62 984.1
20260906132020 27 137 0.0 0.0 0.00 0.00 0.00 65 984.1
20260906131518 26 33 0.0 0.0 0.00 0.00 0.00 69 984.1
20260906131018 26 33 0.0 0.0 0.00 0.00 0.00 71 984.1
20260906130520 25 34 0.0 0.0 0.00 0.00 0.00 75 984.1
20260906130018 25 34 0.0 0.0 0.00 0.00 0.00 74 983.7
20260906125518 25 34 0.0 0.0 0.00 0.00 0.00 76 983.7
20260906125020 23 34 0.0 0.0 0.00 0.00 0.00 80 983.7
20260906124518 23 44 0.0 0.0 0.00 0.00 0.00 81 983.7
20260906124019 23 46 0.0 0.0 0.00 0.00 0.00 83 983.7
20260906123518 23 57 0.0 0.0 0.00 0.00 0.00 83 983.7
20260906123018 23 69 0.0 0.0 0.00 0.00 0.00 83 983.7
20260906122519 23 50 0.0 0.0 0.00 0.00 0.00 83 983.7
20260906122020 23 21 0.0 0.0 0.00 0.00 0.00 82 983.7
20260906121518 23 17 0.0 0.0 0.00 0.00 0.00 81 983.4
20260906121018 23 17 0.0 0.0 0.00 0.00 0.00 81 983.4
20260906120518 23 17 0.0 0.0 0.00 0.00 0.00 80 983.4
20260906120018 23 33 0.0 0.0 0.00 0.00 0.00 80 983.4
20260906115518 23 34 0.0 0.0 0.00 0.00 0.00 79 983.4
20260906115018 23 35 0.0 0.0 0.00 0.00 0.00 80 983.1
20260906114518 23 35 0.0 0.0 0.00 0.00 0.00 80 983.4
20260906114018 23 3 0.0 0.0 0.00 0.00 0.00 79 983.1
20260906113519 23 3 0.0 0.0 0.00 0.00 0.00 79 983.1
20260906113018 23 3 0.0 0.0 0.00 0.00 0.00 79 983.1
20260906112519 23 3 0.0 0.0 0.00 0.00 0.00 79 983.1
20260906112018 23 3 0.0 0.0 0.00 0.00 0.00 79 983.1
20260906111519 23 3 0.0 0.0 0.00 0.00 0.00 78 982.7
20260906111019 23 2 0.0 0.0 0.00 0.00 0.00 78 982.7
20260906110518 23 2 0.0 0.0 0.00 0.00 0.00 78 982.7
20260906110018 23 55 0.0 0.0 0.00 0.00 0.00 78 982.7
20260906105518 23 56 0.0 0.0 0.00 0.00 0.00 78 982.7
20260906105018 23 7 0.0 0.0 0.00 0.00 0.00 78 982.7
20260906104521 23 6 0.0 0.0 0.00 0.00 0.00 78 982.7
20260906104019 23 6 0.0 0.0 0.00 0.00 0.00 77 982.7
20260906103521 23 5 0.0 0.0 0.00 0.00 0.00 77 982.7
20260906103019 23 48 0.0 0.0 0.00 0.00 0.00 77 982.7
20260906102523 23 47 0.0 0.0 0.00 0.00 0.00 77 982.7
20260906102018 23 6 0.0 0.0 0.00 0.00 0.00 77 982.7
20260906101519 23 4 0.0 0.0 0.00 0.00 0.00 77 982.7
20260906101018 24 39 0.0 0.0 0.00 0.00 0.00 76 982.7
20260906100522 24 33 0.0 0.0 0.00 0.00 0.00 76 982.7
20260906100018 24 25 0.0 0.0 0.00 0.00 0.00 76 982.7
20260906095518 24 32 0.0 0.0 0.00 0.00 0.00 79 982.7
20260906095019 24 32 0.0 0.0 0.00 0.00 0.00 77 982.7
20260906094518 23 16 0.0 0.0 0.00 0.00 0.00 77 982.7
20260906094018 23 15 0.0 0.0 0.00 0.00 0.00 77 982.7
20260906093518 23 15 0.0 0.0 0.00 0.00 0.00 77 982.7
20260906093018 24 15 0.0 0.0 0.00 0.00 0.00 76 982.7
20260906092519 24 27 0.0 0.0 0.00 0.00 0.00 76 982.7
20260906092018 24 27 0.0 0.0 0.00 0.00 0.00 77 982.7
20260906091518 24 18 0.0 0.0 0.00 0.00 0.00 76 982.7
20260906091018 24 16 0.0 0.0 0.00 0.00 0.00 75 982.7
20260906090518 24 17 0.0 0.0 0.00 0.00 0.00 75 982.7
20260906090018 24 16 0.0 0.0 0.00 0.00 0.00 74 982.7
20260906085520 25 16 0.0 0.0 0.00 0.00 0.00 74 982.4
20260906085018 25 16 0.0 0.0 0.00 0.00 0.00 73 982.7
20260906084518 25 16 0.0 0.0 0.00 0.00 0.00 73 982.4
20260906084018 25 16 0.0 0.0 0.00 0.00 0.00 74 982.4
20260906083518 25 15 0.0 0.0 0.00 0.00 0.00 76 982.4
20260906083019 25 88 0.0 0.0 0.00 0.00 0.00 75 982.4
20260906082518 25 40 0.0 0.0 0.00 0.00 0.00 74 982.4
20260906082018 25 37 0.0 0.0 0.00 0.00 0.00 75 982.4
20260906081519 25 72 0.0 3.2 0.00 0.00 0.00 73 982.1
20260906081021 25 32 0.0 0.0 0.00 0.00 0.00 71 982.1
20260906080518 25 33 0.0 0.0 0.00 0.00 0.00 70 982.1
20260906080018 25 33 0.0 0.0 0.00 0.00 0.00 70 982.1
20260906075518 25 33 0.0 0.0 0.00 0.00 0.00 70 982.1
20260906075021 25 33 0.0 0.0 0.00 0.00 0.00 71 982.1
20260906074518 25 33 0.0 0.0 0.00 0.00 0.00 70 982.4
20260906074018 25 33 0.0 0.0 0.00 0.00 0.00 70 982.1
20260906073518 25 26 0.0 1.6 0.00 0.00 0.00 70 982.4
20260906073018 25 75 0.0 0.0 0.00 0.00 0.00 70 982.4
20260906072519 25 359 0.0 0.0 0.00 0.00 0.00 70 982.4
20260906072018 25 359 0.0 0.0 0.00 0.00 0.00 68 982.4
20260906071519 25 359 0.0 0.0 0.00 0.00 0.00 68 982.4
20260906071018 26 358 0.0 0.0 0.00 0.00 0.00 69 982.4
20260906070519 26 360 0.0 0.0 0.00 0.00 0.00 69 982.4
20260906070018 26 32 0.0 0.0 0.00 0.00 0.00 68 982.4
20260906065519 26 4 0.0 0.0 0.00 0.00 0.00 67 982.4
20260906065018 26 4 0.0 0.0 0.00 0.00 0.00 67 982.4
20260906064518 26 4 0.0 0.0 0.00 0.00 0.00 66 982.1
20260906064018 26 4 0.0 0.0 0.00 0.00 0.00 66 982.1
20260906063519 26 3 0.0 0.0 0.00 0.00 0.00 66 982.1
20260906063018 26 2 0.0 0.0 0.00 0.00 0.00 65 982.4
20260906062519 26 2 0.0 0.0 0.00 0.00 0.00 65 982.4
20260906062018 26 346 0.0 0.0 0.00 0.00 0.00 65 982.4
20260906061524 26 29 0.0 0.0 0.00 0.00 0.00 65 982.4
20260906061018 26 345 0.0 0.0 0.00 0.00 0.00 64 982.4
20260906060518 26 345 0.0 0.0 0.00 0.00 0.00 64 982.4
20260906060019 26 345 0.0 0.0 0.00 0.00 0.00 64 982.4
20260906055518 26 24 0.0 0.0 0.00 0.00 0.00 65 982.4
20260906055018 26 24 0.0 0.0 0.00 0.00 0.00 64 982.7
20260906054519 26 24 0.0 0.0 0.00 0.00 0.00 64 982.4
20260906054018 27 23 0.0 0.0 0.00 0.00 0.00 64 982.4
20260906053519 27 24 0.0 0.0 0.00 0.00 0.00 63 982.4
20260906053018 27 22 0.0 1.6 0.00 0.00 0.00 62 982.4
20260906052518 27 26 0.0 0.0 0.00 0.00 0.00 60 982.4
20260906052018 27 33 0.0 0.0 0.00 0.00 0.00 60 982.1
20260906051519 27 64 0.0 0.0 0.00 0.00 0.00 60 982.1
20260906051018 27 36 0.0 0.0 0.00 0.00 0.00 61 982.1
20260906050518 27 30 0.0 0.0 0.00 0.00 0.00 61 982.4
20260906050018 27 28 0.0 0.0 0.00 0.00 0.00 61 982.1
20260906045518 27 351 0.0 0.0 0.00 0.00 0.00 61 982.1
20260906045018 27 21 0.0 0.0 0.00 0.00 0.00 61 982.1
20260906044518 27 20 0.0 0.0 0.00 0.00 0.00 61 982.1
20260906044018 27 21 0.0 0.0 0.00 0.00 0.00 60 982.1
20260906043518 27 21 0.0 0.0 0.00 0.00 0.00 60 982.1
20260906043018 27 21 0.0 0.0 0.00 0.00 0.00 60 982.1
20260906042518 27 21 0.0 0.0 0.00 0.00 0.00 59 982.1
20260906042018 28 21 0.0 0.0 0.00 0.00 0.00 58 982.1
20260906041518 28 21 0.0 0.0 0.00 0.00 0.00 57 982.1
20260906041018 28 10 0.0 0.0 0.00 0.00 0.00 57 982.1
20260906040518 28 344 0.0 0.0 0.00 0.00 0.00 56 982.1
20260906040018 28 347 0.0 0.0 0.00 0.00 0.00 56 982.1
20260906035518 28 15 0.0 0.0 0.00 0.00 0.00 56 982.1
20260906035020 28 21 0.0 0.0 0.00 0.00 0.00 55 982.1
20260906034518 29 21 0.0 0.0 0.00 0.00 0.00 54 982.1
20260906034018 29 22 0.0 0.0 0.00 0.00 0.00 53 982.1
20260906033518 30 24 0.0 0.0 0.00 0.00 0.00 52 982.4
20260906033019 30 35 0.0 3.2 0.00 0.00 0.00 52 982.1
20260906032520 30 72 1.6 4.8 0.00 0.00 0.00 51 982.1
20260906032019 30 33 0.0 1.6 0.00 0.00 0.00 51 982.1
20260906031518 30 71 1.6 1.6 0.00 0.00 0.00 49 982.1
20260906031018 31 30 0.0 0.0 0.00 0.00 0.00 49 982.1
20260906030519 31 56 0.0 1.6 0.00 0.00 0.00 48 982.1
20260906030018 31 39 0.0 4.8 0.00 0.00 0.00 48 982.1
20260906025518 31 96 1.6 4.8 0.00 0.00 0.00 48 982.1
20260906025020 31 104 6.4 6.4 0.00 0.00 0.00 47 982.1
20260906024518 31 92 4.8 4.8 0.00 0.00 0.00 47 982.1
20260906024018 31 52 1.6 3.2 0.00 0.00 0.00 47 981.7
20260906023521 31 38 0.0 3.2 0.00 0.00 0.00 47 981.7
20260906023018 31 53 0.0 0.0 0.00 0.00 0.00 47 981.7
20260906022518 31 42 0.0 1.6 0.00 0.00 0.00 48 981.7
20260906022019 31 98 4.8 4.8 0.00 0.00 0.00 48 981.7
20260906021519 31 42 0.0 0.0 0.00 0.00 0.00 49 981.4
20260906021018 31 52 0.0 0.0 0.00 0.00 0.00 48 981.4
20260906020521 31 67 0.0 1.6 0.00 0.00 0.00 48 981.4
20260906020018 31 36 0.0 0.0 0.00 0.00 0.00 48 981.4
20260906015518 31 65 0.0 3.2 0.00 0.00 0.00 47 981.4
20260906015018 31 26 0.0 3.2 0.00 0.00 0.00 48 981.0
20260906014518 32 39 0.0 1.6 0.00 0.00 0.00 46 981.0
20260906014018 32 65 0.0 0.0 0.00 0.00 0.00 46 981.0
20260906013519 32 52 0.0 0.0 0.00 0.00 0.00 45 981.0
20260906013018 32 42 0.0 0.0 0.00 0.00 0.00 45 981.0
20260906012518 32 29 0.0 0.0 0.00 0.00 0.00 44 981.0
20260906012018 33 29 0.0 0.0 0.00 0.00 0.00 43 981.0
20260906011519 33 17 0.0 0.0 0.00 0.00 0.00 43 981.0
20260906011018 33 41 0.0 3.2 0.00 0.00 0.00 42 981.0
20260906010518 34 22 0.0 1.6 0.00 0.00 0.00 40 980.7
20260906010018 34 63 0.0 3.2 0.00 0.00 0.00 40 980.7
20260906005518 34 67 3.2 3.2 0.00 0.00 0.00 40 980.7
20260906005019 35 87 3.2 3.2 0.00 0.00 0.00 39 980.7
20260906004519 35 69 3.2 3.2 0.00 0.00 0.00 38 980.7
20260906004018 35 86 1.6 4.8 0.00 0.00 0.00 38 980.7
20260906003521 36 123 3.2 4.8 0.00 0.00 0.00 37 980.7
20260906003018 36 62 1.6 3.2 0.00 0.00 0.00 36 980.7
20260906002518 36 54 3.2 3.2 0.00 0.00 0.00 36 980.7
20260906002019 36 106 3.2 3.2 0.00 0.00 0.00 36 980.7
20260906001519 36 125 1.6 4.8 0.00 0.00 0.00 35 980.7
20260906001018 36 116 4.8 8.0 0.00 0.00 0.00 35 980.7
20260906000518 37 6 3.2 4.8 0.00 0.00 0.00 34 980.7
20260906000018 37 42 3.2 8.0 0.00 0.00 0.00 34 980.7
20260905235518 37 108 6.4 6.4 0.00 0.00 0.00 33 980.7
20260905235018 37 148 4.8 8.0 0.00 0.00 0.00 33 980.4
20260905234518 37 106 4.8 6.4 0.00 0.00 0.00 32 980.7
20260905234018 37 157 9.7 9.7 0.00 0.00 0.00 32 980.4
20260905233519 38 119 8.0 8.0 0.00 0.00 0.00 31 980.4
20260905233018 38 117 3.2 12.9 0.00 0.00 0.00 32 980.4
20260905232519 38 188 6.4 8.0 0.00 0.00 0.00 31 980.4
20260905232019 38 151 3.2 9.7 0.00 0.00 0.00 32 980.4
20260905231518 38 344 0.0 8.0 0.00 0.00 0.00 31 980.4
20260905231018 38 147 6.4 12.9 0.00 0.00 0.00 31 980.4
20260905230518 38 158 11.3 12.9 0.00 0.00 0.00 31 980.4
20260905230019 38 144 4.8 4.8 0.00 0.00 0.00 31 980.4
20260905225519 38 244 6.4 6.4 0.00 0.00 0.00 30 980.4
20260905225018 38 327 1.6 4.8 0.00 0.00 0.00 30 980.4
20260905224519 38 161 4.8 11.3 0.00 0.00 0.00 30 980.4
20260905224018 38 150 8.0 8.0 0.00 0.00 0.00 30 980.4
20260905223519 39 166 6.4 6.4 0.00 0.00 0.00 31 980.4
20260905223018 39 143 6.4 11.3 0.00 0.00 0.00 31 980.4
20260905222518 39 156 12.9 12.9 0.00 0.00 0.00 30 980.4
20260905222020 39 200 3.2 9.7 0.00 0.00 0.00 30 980.4
20260905221519 39 180 9.7 9.7 0.00 0.00 0.00 30 980.4
20260905221020 38 170 6.4 11.3 0.00 0.00 0.00 31 980.4
20260905220518 37 147 11.3 11.3 0.00 0.00 0.00 32 980.4
20260905220018 38 153 9.7 9.7 0.00 0.00 0.00 32 980.4
20260905215519 38 173 9.7 12.9 0.00 0.00 0.00 31 980.4
20260905215018 38 164 6.4 8.0 0.00 0.00 0.00 30 980.7
20260905214518 39 179 11.3 11.3 0.00 0.00 0.00 29 980.7
20260905214018 38 353 3.2 4.8 0.00 0.00 0.00 30 980.7
20260905213518 38 64 4.8 4.8 0.00 0.00 0.00 30 980.7
20260905213018 38 182 8.0 12.9 0.00 0.00 0.00 29 980.7
20260905212518 37 155 9.7 9.7 0.00 0.00 0.00 32 981.0
20260905212018 37 90 3.2 9.7 0.00 0.00 0.00 32 981.0
20260905211518 37 114 4.8 4.8 0.00 0.00 0.00 33 981.0
20260905211019 39 153 8.0 12.9 0.00 0.00 0.00 31 981.0
20260905210518 39 135 12.9 17.7 0.00 0.00 0.00 30 981.0
20260905210018 40 144 17.7 17.7 0.00 0.00 0.00 30 981.4
20260905205518 40 166 6.4 6.4 0.00 0.00 0.00 30 981.4
20260905205018 38 64 3.2 6.4 0.00 0.00 0.00 32 981.4
20260905204518 37 204 6.4 9.7 0.00 0.00 0.00 31 981.4
20260905204018 38 177 9.7 16.1 0.00 0.00 0.00 31 981.7
20260905203519 38 176 11.3 16.1 0.00 0.00 0.00 31 981.7
20260905203020 38 165 11.3 12.9 0.00 0.00 0.00 30 981.7
20260905202520 38 194 16.1 16.1 0.00 0.00 0.00 30 981.7
20260905202019 38 260 6.4 6.4 0.00 0.00 0.00 30 981.7
20260905201518 38 179 4.8 12.9 0.00 0.00 0.00 31 981.7
20260905201018 39 167 3.2 3.2 0.00 0.00 0.00 31 982.1
20260905200519 38 141 4.8 9.7 0.00 0.00 0.00 32 982.1